sat.trackr.live / text

‹ back to catalog

REAL

NORAD 64875 · 2025-154G

PAYLOAD ACTIVE UNKNOWN

§ Identity

Operator
Country
US
Launch date
2025-07-23
Launch site
AFWTR
Launch vehicle
Mass (kg)
RCS (m²)

External: N2YO · Heavens-Above · Gunter

§ Orbital elements

Epoch: 2026-09-21T17:21:01.023264Z

Period
93.72 min
Inclination
97.3939°
Eccentricity
0.0001634
Mean motion
15.36547289 rev/d
Perigee alt
455.2 km
Apogee alt
457.4 km
Semi-major
6,834.5 km
B*
4.7217e-4
RAAN
333.3439°
Arg perigee
113.9146°
Mean anomaly
246.2270°
Rev number
6,485

§ Raw data

REAL1 64875U 25154G   26264.72292851  .00016779  00000+0  47217-3 0  99962 64875  97.3939 333.3439 0001634 113.9146 246.2270 15.36547289 64855

JSON: /api/v1/satellites/64875 · /tle

For live sub-satellite position, see the globe view (requires WebGL).

§ Visibility from observer

Set your observer location to see the next 7 days of passes ≥ 10°. The values pass through the URL so the page stays shareable.

No JS? Fill the form by hand. The geolocation button needs JavaScript.

§ Radio — SatNOGS DB

ModeDescriptionDownlinkUplink
FM Mode S - Transmitter 2.202 GHz
GFSK Mode U - GFSK9k6 - Beacon 450.060 MHz

2 transmitters · refreshed weekly from db.satnogs.org